This is the latest recevied weather packets stored in our database for station/object WE0DX-1. If no packets are shown the sender has not sent any weather packets the latest 10 day(s).
| Time | Temp. | Humidity | Pressure | Rain* | Wind** | Luminosity | Snow |
|---|---|---|---|---|---|---|---|
| 1777973984 | 11.67° C | 60% | 1009.2 hPa | 0 mm | - | 0 W/m² | - |
| 1777973680 | 11.67° C | 61% | 1009.2 hPa | 0 mm | - | 0 W/m² | - |
| 1777973377 | 11.67° C | 60% | 1008.8 hPa | 0 mm | - | 0 W/m² | - |
| 1777973075 | 11.67° C | 60% | 1008.3 hPa | 0 mm | - | 0 W/m² | - |
| 1777972773 | 11.67° C | 60% | 1007.7 hPa | 0 mm | - | 0 W/m² | - |
| 1777972470 | 11.11° C | 61% | 1007.8 hPa | 0 mm | - | 0 W/m² | - |
| 1777972168 | 11.11° C | 62% | 1007.6 hPa | 0 mm | - | 0 W/m² | - |
| 1777971866 | 11.11° C | 62% | 1007.5 hPa | 0 mm | - | 0 W/m² | - |
| 1777971563 | 11.11° C | 64% | 1007.4 hPa | 0 mm | - | 0 W/m² | - |
| 1777971261 | 11.11° C | 65% | 1007.5 hPa | 0 mm | - | 0 W/m² | - |
| 1777970959 | 11.11° C | 66% | 1007.4 hPa | 0 mm | - | 0 W/m² | - |
| 1777970656 | 11.11° C | 66% | 1007.3 hPa | 0 mm | - | 0 W/m² | - |
| 1777970354 | 11.11° C | 66% | 1007.5 hPa | 0 mm | - | 0 W/m² | - |
| 1777970052 | 11.11° C | 65% | 1007.4 hPa | 0 mm | - | 0 W/m² | - |
| 1777969748 | 11.11° C | 65% | 1007.4 hPa | 0 mm | - | 0 W/m² | - |
| 1777969444 | 11.11° C | 66% | 1007 hPa | 0 mm | - | 0 W/m² | - |
| 1777969141 | 11.11° C | 66% | 1007.8 hPa | 0 mm | - | 0 W/m² | - |
| 1777968837 | 10.56° C | 70% | 1008.1 hPa | 0 mm | - | 0 W/m² | - |
| 1777968534 | 10.56° C | 72% | 1007.8 hPa | 0 mm | - | 0 W/m² | - |
| 1777968230 | 10.56° C | 75% | 1008.1 hPa | 0 mm | - | 0 W/m² | - |
| 1777967926 | 10.56° C | 72% | 1007.8 hPa | 0 mm | - | 0 W/m² | - |
| 1777967623 | 10.56° C | 74% | 1008 hPa | 1.78 mm | - | 0 W/m² | - |
| 1777967320 | 10.56° C | 74% | 1008.3 hPa | 1.78 mm | - | 0 W/m² | - |
| 1777967017 | 10.56° C | 70% | 1009 hPa | 0 mm | - | 0 W/m² | - |
| 1777966714 | 10.56° C | 69% | 1009.5 hPa | 1.27 mm | - | 0 W/m² | - |
* Rain latest hour (hover to see other rain measurements)
** Current wind speed in m/s (hover to see current wind gust speed)